Weather History for Cherry Point, NC

Change the Weather History Date:

Thursday, February 14, 2013

  Actual Average Record
Temperature  
Mean Temperature 46 °F -  
Max Temperature 52 °F 55 °F 69 °F (2005)
Min Temperature 41 °F 35 °F 28 °F (1999)
Degree Days  
Heating Degree Days 18    
Moisture  
Dew Point 38 °F    
Average Humidity 71    
Maximum Humidity 89    
Minimum Humidity 53    
Precipitation  
Precipitation 0.00 in - - ()
Sea Level Pressure  
Sea Level Pressure 29.98 in    
Wind  
Wind Speed 7 mph ()    
Max Wind Speed 15 mph    
Max Gust Speed 23 mph    
Visibility 9.9 miles    
Events      
Averages and records for this station are not official NWS values.
T = Trace of Precipitation, MM = Missing Value Source: Averaged Metar Reports

Daily Weather History Graph

Daily Weather History Graph

Search for Another Location

Airport:

Trip Planner

Search our weather history database for the weather conditions in past years. The results will help you decide how hot, cold, wet, or windy it might be!

Date:

Astronomy

Feb. 14, 2013 Rise Set
Actual Time 6:54 AM EST 5:49 PM EST
Civil Twilight 6:28 AM EST 6:15 PM EST
Nautical Twilight 5:58 AM EST 6:45 PM EST
Astronomical Twilight 5:29 AM EST 7:14 PM EST
Moon 9:08 AM EST (2/14) 10:35 PM EST (2/14)
Length of Visible Light 11h 47m
Length of Day
10h 55m
Waxing Crescent, 21% of the Moon is Illuminated
Feb 14
Waxing Crescent
Feb 17
First Quarter
Feb 25
Full
Mar 4
Last Quarter
Mar 11
New

Hourly Weather History & Observations

Time (EST) Temp. Windchill Dew Point Humidity Pressure Visibility Wind Dir Wind Speed Gust Speed Precip Events Conditions
12:14 AM 51.8 °F - 44.6 °F 76% 29.81 in 10.0 mi West 10.4 mph - N/A   Mostly Cloudy
12:31 AM 51.8 °F - 44.6 °F 76% 29.82 in 10.0 mi West 9.2 mph - N/A   Scattered Clouds
12:54 AM 51.1 °F - 45.0 °F 80% 29.81 in 10.0 mi West 10.4 mph - N/A   Partly Cloudy
1:41 AM 50.0 °F - 44.6 °F 82% 29.82 in 10.0 mi NW 12.7 mph - N/A   Mostly Cloudy
1:54 AM 50.0 °F - 43.0 °F 77% 29.81 in 10.0 mi NW 13.8 mph 20.7 mph N/A   Mostly Cloudy
2:42 AM 48.2 °F - 39.2 °F 71% 29.85 in 10.0 mi NW 15.0 mph - N/A   Scattered Clouds
2:54 AM 48.0 °F - 39.0 °F 71% 29.85 in 10.0 mi NNW 15.0 mph 23.0 mph N/A   Partly Cloudy
3:54 AM 46.0 °F 41.9 °F 36.0 °F 68% 29.89 in 10.0 mi NW 8.1 mph - N/A   Clear
4:54 AM 45.0 °F 40.6 °F 36.0 °F 71% 29.93 in 10.0 mi NW 8.1 mph - N/A   Clear
5:54 AM 43.0 °F 40.3 °F 36.0 °F 76% 29.95 in 10.0 mi NNW 4.6 mph - N/A   Clear
6:54 AM 43.0 °F 37.7 °F 36.0 °F 76% 29.96 in 10.0 mi North 9.2 mph - N/A   Clear
7:54 AM 45.0 °F 38.5 °F 36.0 °F 71% 30.00 in 10.0 mi North 13.8 mph - N/A   Mostly Cloudy
8:54 AM 44.1 °F 39.0 °F 36.0 °F 73% 30.02 in 10.0 mi North 9.2 mph - N/A   Mostly Cloudy
9:54 AM 46.9 °F - 35.1 °F 63% 30.03 in 10.0 mi North 11.5 mph - N/A   Scattered Clouds
10:54 AM 48.9 °F - 36.0 °F 61% 30.04 in 10.0 mi North 8.1 mph - N/A   Mostly Cloudy
11:54 AM 48.9 °F - 36.0 °F 61% 30.04 in 10.0 mi Variable 3.5 mph - N/A   Mostly Cloudy
12:54 PM 50.0 °F - 35.1 °F 57% 30.04 in 10.0 mi Variable 3.5 mph - N/A   Mostly Cloudy
1:17 PM 50.0 °F - 35.6 °F 58% 30.04 in 10.0 mi Variable 3.5 mph - N/A   Mostly Cloudy
1:54 PM 51.1 °F - 36.0 °F 56% 30.03 in 10.0 mi Calm Calm - N/A   Mostly Cloudy
2:54 PM 52.0 °F - 35.1 °F 53% 30.01 in 10.0 mi North 6.9 mph - N/A   Clear
3:54 PM 52.0 °F - 35.1 °F 53% 30.02 in 10.0 mi NNE 3.5 mph - N/A   Mostly Cloudy
4:54 PM 51.1 °F - 36.0 °F 56% 30.03 in 10.0 mi East 4.6 mph - N/A   Mostly Cloudy
5:54 PM 48.0 °F - 37.9 °F 68% 30.04 in 10.0 mi SE 3.5 mph - N/A   Mostly Cloudy
6:54 PM 44.1 °F 41.5 °F 37.9 °F 79% 30.06 in 10.0 mi SSE 4.6 mph - N/A   Scattered Clouds
7:54 PM 43.0 °F 41.3 °F 37.9 °F 82% 30.07 in 10.0 mi ESE 3.5 mph - N/A   Scattered Clouds
8:54 PM 41.0 °F 39.0 °F 37.9 °F 89% 30.09 in 10.0 mi SE 3.5 mph - N/A   Clear
9:54 PM 41.0 °F - 37.9 °F 89% 30.10 in 9.0 mi Calm Calm - N/A   Scattered Clouds
10:54 PM 41.0 °F - 37.0 °F 86% 30.07 in 8.0 mi Calm Calm - N/A   Scattered Clouds
11:54 PM 41.0 °F - 37.0 °F 86% 30.06 in 10.0 mi Calm Calm - N/A   Clear